GW2700 Weather Reports


time (UTC)temp
C
wind
direction
speed
KPH
gust
KPH
rain 1hr
cm
rain 24hr
cm
rain mn
cm
humidity
%
barometer
mb
20260505122249 21 250 1.6 3.2 0.00 0.00 0.00 85 1002.8
20260505121745 21 155 3.2 4.8 0.00 0.00 0.00 85 1002.7
20260505121242 21 241 4.8 6.4 0.00 0.00 0.00 85 1002.5
20260505120738 21 244 4.8 4.8 0.00 0.00 0.00 85 1002.8
20260505120235 21 267 1.6 3.2 0.00 0.00 0.00 85 1002.6
20260505115733 21 244 3.2 4.8 0.00 0.00 0.00 85 1002.4
20260505115231 21 277 4.8 6.4 0.00 0.00 0.00 85 1002.5
20260505114728 21 254 1.6 1.6 0.00 0.00 0.00 85 1002.3
20260505114224 21 270 3.2 3.2 0.00 0.00 0.00 85 1002.3
20260505113721 21 211 3.2 3.2 0.00 0.00 0.00 85 1002.4
20260505113217 21 171 3.2 3.2 0.00 0.00 0.00 85 1002.4
20260505112714 21 243 3.2 4.8 0.00 0.00 0.00 85 1002.5
20260505112212 21 166 6.4 6.4 0.00 0.00 0.00 85 1002.4
20260505111711 21 280 6.4 6.4 0.00 0.00 0.00 85 1002.5
20260505111208 21 222 6.4 11.3 0.00 0.00 0.00 85 1002.4
20260505110704 21 250 6.4 6.4 0.00 0.00 0.00 85 1002.5
20260505110201 20 241 6.4 9.7 0.00 0.00 0.00 85 1002.4
20260505102137 20 259 8.0 9.7 0.00 0.00 0.00 84 1002.3
20260505101636 20 228 3.2 4.8 0.00 0.00 0.00 85 1002.2
20260505101132 20 252 4.8 4.8 0.00 0.00 0.00 84 1002.4
20260505100628 20 167 1.6 3.2 0.00 0.00 0.00 84 1002.4
20260505100125 20 285 9.7 12.9 0.00 0.00 0.00 84 1002.2
20260505095621 20 230 3.2 3.2 0.00 0.00 0.00 84 1002.1
20260505095118 20 221 3.2 3.2 0.00 0.00 0.00 84 1002.0
20260505094614 20 259 11.3 12.9 0.00 0.00 0.00 84 1002.1
20260505094110 20 257 3.2 3.2 0.00 0.00 0.00 84 1002.1
20260505093607 20 242 1.6 3.2 0.00 0.00 0.00 84 1002.2
20260505093104 20 244 6.4 6.4 0.00 0.00 0.00 84 1002.3
20260505092601 20 256 1.6 3.2 0.00 0.00 0.00 84 1002.3
20260505092100 20 131 3.2 4.8 0.00 0.00 0.00 84 1002.5
20260505091556 20 272 4.8 4.8 0.00 0.00 0.00 85 1002.4
20260505091055 20 266 6.4 9.7 0.00 0.00 0.00 84 1002.7
20260505090552 20 348 6.4 12.9 0.00 0.00 0.00 84 1002.3
20260505090050 20 208 8.0 11.3 0.00 0.00 0.00 84 1002.5
20260505085547 20 250 8.0 14.5 0.00 0.00 0.00 85 1002.3
20260505085045 20 247 8.0 11.3 0.00 0.00 0.00 85 1002.5
20260505084543 20 217 4.8 4.8 0.00 0.00 0.00 85 1002.7
20260505084041 20 279 3.2 4.8 0.00 0.00 0.00 85 1002.7
20260505083538 20 284 3.2 4.8 0.00 0.00 0.00 85 1002.9
20260505083034 20 275 4.8 6.4 0.00 0.00 0.00 85 1002.8
20260505082530 20 253 3.2 3.2 0.00 0.00 0.00 84 1002.8
20260505082027 20 137 3.2 3.2 0.00 0.00 0.00 85 1002.9
20260505081524 20 272 3.2 3.2 0.00 0.00 0.00 85 1002.8
20260505081021 20 292 4.8 6.4 0.00 0.00 0.00 85 1003.1
20260505080517 20 239 3.2 4.8 0.00 0.00 0.00 85 1002.9
20260505080014 20 206 3.2 3.2 0.00 0.00 0.00 85 1002.9
20260505075509 20 253 3.2 3.2 0.00 0.00 0.00 84 1003.1
20260505075007 20 250 3.2 4.8 0.00 0.00 0.00 84 1003.4
20260505074504 20 111 3.2 3.2 0.00 0.00 0.00 84 1003.3
20260505074001 20 264 4.8 6.4 0.00 0.00 0.00 84 1003.4
20260505073458 20 184 8.0 11.3 0.00 0.00 0.00 84 1003.3
20260505072956 20 268 3.2 3.2 0.00 0.00 0.00 84 1003.4
20260505072452 20 291 3.2 3.2 0.00 0.00 0.00 83 1003.5
20260505071948 20 162 3.2 6.4 0.00 0.00 0.00 83 1003.4
20260505071444 20 257 3.2 4.8 0.00 0.00 0.00 83 1003.6
20260505070942 20 310 4.8 6.4 0.00 0.00 0.00 83 1003.7
20260505070439 20 261 4.8 6.4 0.00 0.00 0.00 82 1003.7
20260505065934 20 272 3.2 3.2 0.00 0.00 0.00 82 1003.6
20260505065431 20 281 1.6 3.2 0.00 0.00 0.00 82 1003.8
20260505064928 20 165 1.6 1.6 0.00 0.00 0.00 82 1003.7
20260505064425 20 266 4.8 6.4 0.00 0.00 0.00 82 1003.5
20260505063923 20 235 4.8 6.4 0.00 0.00 0.00 81 1003.5
20260505063419 20 212 4.8 4.8 0.00 0.00 0.00 81 1003.7
20260505062916 20 184 1.6 1.6 0.00 0.00 0.00 81 1003.8
20260505062414 20 246 3.2 4.8 0.00 0.00 0.00 81 1004.0
20260505061910 20 206 3.2 4.8 0.00 0.00 0.00 80 1004.2
20260505061408 20 247 3.2 3.2 0.00 0.00 0.00 80 1004.2
20260505060905 20 249 4.8 6.4 0.00 0.00 0.00 80 1004.3
20260505060402 20 236 8.0 11.3 0.00 0.00 0.00 80 1004.1
20260505055858 20 252 3.2 3.2 0.00 0.00 0.00 79 1004.1
20260505055354 20 237 4.8 4.8 0.00 0.00 0.00 79 1004.1
20260505054852 20 223 3.2 3.2 0.00 0.00 0.00 79 1004.0
20260505054349 20 206 3.2 3.2 0.00 0.00 0.00 78 1004.2
20260505053847 21 189 3.2 3.2 0.00 0.00 0.00 78 1004.1
20260505053344 20 245 3.2 3.2 0.00 0.00 0.00 78 1004.2
20260505052840 21 309 6.4 9.7 0.00 0.00 0.00 78 1004.2
20260505052337 21 211 3.2 4.8 0.00 0.00 0.00 78 1004.3
20260505051835 21 142 1.6 3.2 0.00 0.00 0.00 77 1004.2
20260505051332 21 160 3.2 4.8 0.00 0.00 0.00 77 1004.3
20260505050830 21 244 4.8 6.4 0.00 0.00 0.00 77 1004.5
20260505050328 21 247 3.2 3.2 0.00 0.00 0.00 77 1004.3
20260505041758 21 244 3.2 3.2 0.00 0.00 0.00 74 1004.5
20260505041255 21 86 1.6 1.6 0.00 0.00 0.00 73 1004.5
20260505040752 21 235 1.6 3.2 0.00 0.00 0.00 73 1004.6
20260505040250 21 267 3.2 6.4 0.00 0.00 0.00 73 1004.7
20260505035746 21 241 1.6 3.2 0.00 0.00 0.00 72 1004.7
20260505035242 22 199 3.2 3.2 0.00 0.00 0.00 71 1004.6
20260505034739 22 191 4.8 6.4 0.00 0.00 0.00 71 1004.5
20260505034236 22 209 6.4 12.9 0.00 0.00 0.00 71 1004.5
20260505033733 22 165 3.2 4.8 0.00 0.00 0.00 70 1004.6
20260505033231 22 208 1.6 1.6 0.00 0.00 0.00 70 1004.5
20260505032728 22 304 1.6 3.2 0.00 0.00 0.00 69 1004.3
20260505032224 22 277 3.2 3.2 0.00 0.00 0.00 69 1004.4
20260505031722 22 291 4.8 9.7 0.00 0.00 0.00 68 1004.5
20260505031218 22 137 3.2 3.2 0.00 0.00 0.00 68 1004.3
20260505030715 22 215 3.2 4.8 0.00 0.00 0.00 67 1004.3
20260505030211 22 257 3.2 4.8 0.00 0.00 0.00 67 1004.3
20260505025707 22 114 1.6 1.6 0.00 0.00 0.00 66 1004.2
20260505025206 22 254 3.2 3.2 0.00 0.00 0.00 66 1004.2
20260505024703 22 146 1.6 3.2 0.00 0.00 0.00 66 1004.2
20260505024200 22 151 1.6 3.2 0.00 0.00 0.00 65 1004.3
20260505023657 22 189 6.4 9.7 0.00 0.00 0.00 65 1004.0
20260505023154 23 77 1.6 3.2 0.00 0.00 0.00 65 1004.2
20260505022652 23 175 3.2 4.8 0.00 0.00 0.00 64 1004.4
20260505022149 23 110 6.4 9.7 0.00 0.00 0.00 64 1004.2
20260505021645 23 294 3.2 3.2 0.00 0.00 0.00 64 1004.2
20260505021142 23 249 4.8 4.8 0.00 0.00 0.00 64 1004.2
20260505020638 23 188 4.8 9.7 0.00 0.00 0.00 63 1004.2
20260505020134 23 230 1.6 1.6 0.00 0.00 0.00 63 1004.3
20260505015631 23 266 3.2 3.2 0.00 0.00 0.00 63 1004.3
20260505015128 23 208 3.2 3.2 0.00 0.00 0.00 62 1004.2
20260505014625 23 244 1.6 1.6 0.00 0.00 0.00 62 1004.3
20260505014122 23 254 3.2 3.2 0.00 0.00 0.00 62 1004.1
20260505013619 23 281 4.8 4.8 0.00 0.00 0.00 61 1004.1
20260505013116 23 203 1.6 3.2 0.00 0.00 0.00 61 1004.1
20260505012615 23 295 3.2 3.2 0.00 0.00 0.00 60 1004.1
20260505012111 23 264 3.2 3.2 0.00 0.00 0.00 60 1004.1
20260505011607 23 280 3.2 4.8 0.00 0.00 0.00 60 1004.2
20260505011104 23 274 1.6 3.2 0.00 0.00 0.00 59 1004.0
20260505010559 24 239 1.6 1.6 0.00 0.00 0.00 58 1004.1
20260505010055 24 193 4.8 6.4 0.00 0.00 0.00 58 1004.4
20260505005552 24 249 3.2 3.2 0.00 0.00 0.00 58 1004.2
20260505005049 24 257 1.6 1.6 0.00 0.00 0.00 57 1003.9
20260505004546 24 232 3.2 4.8 0.00 0.00 0.00 57 1004.2
20260505004043 25 250 3.2 3.2 0.00 0.00 0.00 56 1004.1
20260505003540 25 255 3.2 4.8 0.00 0.00 0.00 56 1003.9
20260505003037 25 252 1.6 1.6 0.00 0.00 0.00 56 1004.2
20260505002537 25 135 1.6 1.6 0.00 0.00 0.00 55 1003.8
20260505002032 25 168 1.6 3.2 0.00 0.00 0.00 55 1004.1
20260505001528 25 289 3.2 4.8 0.00 0.00 0.00 54 1004.0
20260505001026 25 141 3.2 4.8 0.00 0.00 0.00 54 1004.1
20260505000523 25 256 1.6 3.2 0.00 0.00 0.00 54 1004.1
20260505000020 25 252 3.2 3.2 0.00 0.00 0.00 54 1004.2
20260504235517 25 219 4.8 6.4 0.00 0.00 0.00 53 1004.2
20260504235013 25 322 6.4 9.7 0.00 0.00 0.00 53 1004.4
20260504234511 25 228 1.6 3.2 0.00 0.00 0.00 54 1004.5
20260504234008 25 251 4.8 6.4 0.00 0.00 0.00 53 1004.6
20260504233503 26 145 4.8 4.8 0.00 0.00 0.00 53 1004.6
20260504233000 25 252 4.8 6.4 0.00 0.00 0.00 53 1004.9
20260504232457 25 261 1.6 3.2 0.00 0.00 0.00 53 1004.6
20260504231955 26 285 4.8 4.8 0.00 0.00 0.00 52 1004.7
20260504231451 26 281 4.8 6.4 0.00 0.00 0.00 52 1004.7
20260504230947 26 242 4.8 4.8 0.00 0.00 0.00 52 1004.7
20260504230444 26 244 6.4 9.7 0.00 0.00 0.00 52 1004.7
20260504225943 26 240 3.2 4.8 0.00 0.00 0.00 52 1004.9
20260504225439 26 154 3.2 4.8 0.00 0.00 0.00 52 1004.9
20260504224936 26 256 3.2 4.8 0.00 0.00 0.00 52 1004.9
20260504224433 26 117 3.2 6.4 0.00 0.00 0.00 52 1005.1
20260504223930 26 225 1.6 1.6 0.00 0.00 0.00 52 1005.2
20260504223426 26 184 3.2 3.2 0.00 0.00 0.00 51 1005.3
20260504222921 26 252 3.2 4.8 0.00 0.00 0.00 51 1005.2
20260504222419 26 241 4.8 6.4 0.00 0.00 0.00 51 1005.4
20260504221917 26 281 3.2 3.2 0.00 0.00 0.00 50 1005.3
20260504221414 26 264 6.4 6.4 0.00 0.00 0.00 51 1005.4
20260504220911 26 308 3.2 3.2 0.00 0.00 0.00 49 1005.3
20260504220407 26 230 4.8 6.4 0.00 0.00 0.00 48 1005.1
20260504215905 26 189 6.4 9.7 0.00 0.00 0.00 49 1005.4
20260504215401 26 222 1.6 3.2 0.00 0.00 0.00 49 1005.4
20260504214857 26 181 1.6 1.6 0.00 0.00 0.00 48 1005.7
20260504214354 26 283 3.2 3.2 0.00 0.00 0.00 48 1005.8
20260504213851 26 80 1.6 3.2 0.00 0.00 0.00 48 1005.8
20260504213347 26 261 3.2 3.2 0.00 0.00 0.00 48 1006.0
20260504212844 26 260 3.2 4.8 0.00 0.00 0.00 48 1006.1
20260504212340 26 177 4.8 6.4 0.00 0.00 0.00 48 1006.0
20260504211838 26 255 4.8 4.8 0.00 0.00 0.00 47 1006.4
20260504211334 26 256 3.2 6.4 0.00 0.00 0.00 46 1006.4
20260504210832 26 275 4.8 4.8 0.00 0.00 0.00 47 1006.6
20260504210328 26 193 4.8 6.4 0.00 0.00 0.00 47 1006.5
20260504205826 26 265 3.2 3.2 0.00 0.00 0.00 47 1006.8
20260504205323 26 282 4.8 4.8 0.00 0.00 0.00 48 1006.6
20260504204821 26 155 1.6 3.2 0.00 0.00 0.00 47 1007.0
20260504204320 26 236 1.6 1.6 0.00 0.00 0.00 46 1006.9
20260504203819 25 234 0.0 1.6 0.00 0.00 0.00 48 1007.2
20260504203315 26 250 1.6 3.2 0.00 0.00 0.00 47 1007.2
20260504202810 26 203 3.2 4.8 0.00 0.00 0.00 46 1007.3
20260504202308 26 252 3.2 3.2 0.00 0.00 0.00 47 1007.2
20260504201805 26 280 6.4 9.7 0.00 0.00 0.00 46 1007.3
20260504201302 25 272 8.0 11.3 0.00 0.00 0.00 46 1007.4
20260504200800 25 208 8.0 12.9 0.00 0.00 0.00 46 1007.5
20260504200255 25 18 3.2 4.8 0.00 0.00 0.00 46 1007.4
20260504195752 26 154 6.4 11.3 0.00 0.00 0.00 46 1007.8
20260504195248 25 316 4.8 6.4 0.00 0.00 0.00 46 1007.8
20260504194745 25 240 4.8 6.4 0.00 0.00 0.00 46 1008.1
20260504194241 25 231 4.8 4.8 0.00 0.00 0.00 46 1008.0
20260504193737 25 182 3.2 4.8 0.00 0.00 0.00 48 1008.1
20260504193235 25 106 3.2 3.2 0.00 0.00 0.00 49 1008.0
20260504192733 25 77 3.2 4.8 0.00 0.00 0.00 48 1008.0
20260504192231 25 169 3.2 3.2 0.00 0.00 0.00 49 1008.4
20260504191730 25 227 6.4 11.3 0.00 0.00 0.00 48 1008.2
20260504191226 25 218 3.2 4.8 0.00 0.00 0.00 48 1008.6
20260504190721 25 188 3.2 4.8 0.00 0.00 0.00 48 1008.3
20260504190218 25 152 3.2 4.8 0.00 0.00 0.00 47 1008.6
20260504185715 25 215 6.4 9.7 0.00 0.00 0.00 46 1008.5
20260504185212 25 271 4.8 6.4 0.00 0.00 0.00 47 1008.6
20260504184708 25 139 4.8 6.4 0.00 0.00 0.00 48 1008.7
20260504184203 25 249 3.2 3.2 0.00 0.00 0.00 47 1008.8
20260504183700 25 148 6.4 9.7 0.00 0.00 0.00 48 1009.0
20260504183157 25 281 1.6 3.2 0.00 0.00 0.00 48 1008.7
20260504182654 25 259 4.8 9.7 0.00 0.00 0.00 47 1009.1
20260504182152 25 288 4.8 4.8 0.00 0.00 0.00 47 1009.1
20260504181649 24 259 6.4 6.4 0.00 0.00 0.00 47 1009.3
20260504181147 24 255 4.8 6.4 0.00 0.00 0.00 47 1009.1
20260504180646 25 302 6.4 11.3 0.00 0.00 0.00 47 1009.5
20260504180144 25 159 3.2 4.8 0.00 0.00 0.00 47 1009.4
20260504175641 25 140 1.6 1.6 0.00 0.00 0.00 47 1009.5
20260504175137 24 319 3.2 4.8 0.00 0.00 0.00 47 1009.3
20260504174636 24 39 4.8 9.7 0.00 0.00 0.00 47 1009.6
20260504174132 24 273 4.8 4.8 0.00 0.00 0.00 48 1009.8
20260504173629 24 265 1.6 1.6 0.00 0.00 0.00 48 1010.0
20260504173126 24 274 3.2 4.8 0.00 0.00 0.00 47 1009.9
20260504172623 24 188 3.2 3.2 0.00 0.00 0.00 47 1009.7
20260504172120 23 222 3.2 3.2 0.00 0.00 0.00 48 1010.1
20260504171616 23 255 1.6 1.6 0.00 0.00 0.00 48 1010.0
20260504171114 23 307 6.4 9.7 0.00 0.00 0.00 47 1010.1
20260504170609 23 139 3.2 6.4 0.00 0.00 0.00 49 1010.1
20260504170107 23 261 3.2 4.8 0.00 0.00 0.00 48 1010.0
20260504150952 21 254 1.6 3.2 0.00 0.00 0.00 57 1011.0
20260504150450 20 229 8.0 9.7 0.00 0.00 0.00 58 1011.1
20260504140916 18 321 4.8 4.8 0.00 0.00 0.00 63 1011.2
20260504140412 18 260 3.2 4.8 0.00 0.00 0.00 64 1011.4
20260504130337 16 253 3.2 4.8 0.00 0.00 0.00 71 1011.2